"Data set title: Gaging station water sample data. Usage: Event based table used with water chemistry collection from 01-Oct-2020 to 30-Sep-2021",,,,,,,,,,,,
,,,,,,,,,,,,,
"Site","Date","RecNum","SiteID","Flag_SiteID","LOGGERID","PROGID","VNOTCH_INST_0_0_01","Flag_VNOTCH_INST_0_0_01","SAMPLE_INST_0_0_01","Flag_SAMPLE_INST_0_0_01","STAGE_INST_0_0_01","Flag_STAGE_INST_0_0_01"
"","yyyy-MM-dd HH:mm:ss","count","","none","none","none","none","none","count","none","ft","none"
"nominal","datetime","nominal","data","code","nominal","nominal","data","code","data","code","data","code"
"GSWS07_119",2020-10-01 00:12:00,658,107.00,"",119,55521.0,0,"",66,"",0.0390,""
"GSWS07_119",2020-10-01 13:30:00,659,107.00,"",119,55521.0,0,"",67,"",0.0390,""
"GSWS07_119",2020-10-02 02:48:00,660,107.00,"",119,55521.0,0,"",68,"",0.0390,""
"GSWS07_119",2020-10-02 16:06:00,661,107.00,"",119,55521.0,0,"",69,"",0.0390,""
"GSWS07_119",2020-10-03 05:24:00,662,107.00,"",119,55521.0,0,"",70,"",0.0400,""
"GSWS07_119",2020-10-03 18:42:00,663,107.00,"",119,55521.0,0,"",71,"",0.0400,""
"GSWS07_119",2020-10-04 08:00:00,664,107.00,"",119,55521.0,0,"",72,"",0.0410,""
"GSWS07_119",2020-10-04 21:18:00,665,107.00,"",119,55521.0,0,"",73,"",0.0400,""
"GSWS07_119",2020-10-05 10:36:00,666,107.00,"",119,55521.0,0,"",74,"",0.0400,""
"GSWS07_119",2020-10-05 23:54:00,667,107.00,"",119,55521.0,0,"",75,"",0.0390,""
"GSWS07_119",2020-10-06 13:12:00,668,107.00,"",119,55521.0,0,"",76,"",0.0380,""
"GSWS07_119",2020-10-06 15:26:00,669,107.00,"",119,55521.0,0,"",77,"",0.0370,""
"GSWS07_119",2020-10-07 02:30:00,670,107.00,"",119,55521.0,0,"",1,"",0.0390,""
"GSWS07_119",2020-10-07 15:48:00,671,107.00,"",119,55521.0,0,"",2,"",0.0400,""
"GSWS07_119",2020-10-08 05:06:00,672,107.00,"",119,55521.0,0,"",3,"",0.0400,""
"GSWS07_119",2020-10-08 18:24:00,673,107.00,"",119,55521.0,0,"",4,"",0.0400,""
"GSWS07_119",2020-10-09 07:42:00,674,107.00,"",119,55521.0,0,"",5,"",0.0390,""
"GSWS07_119",2020-10-09 21:00:00,675,107.00,"",119,55521.0,0,"",6,"",0.0370,""
"GSWS07_119",2020-10-10 10:18:00,676,107.00,"",119,55521.0,0,"",7,"",0.0810,""
"GSWS07_119",2020-10-10 23:36:00,677,107.00,"",119,55521.0,0,"",8,"",0.0510,""
"GSWS07_119",2020-10-11 12:54:00,678,107.00,"",119,55521.0,0,"",9,"",0.0710,""
"GSWS07_119",2020-10-12 02:12:00,679,107.00,"",119,55521.0,0,"",10,"",0.1040,""
"GSWS07_119",2020-10-12 15:30:00,680,107.00,"",119,55521.0,0,"",11,"",0.0550,""
"GSWS07_119",2020-10-13 04:48:00,681,107.00,"",119,55521.0,0,"",12,"",0.0480,""
"GSWS07_119",2020-10-13 18:06:00,682,107.00,"",119,55521.0,0,"",13,"",0.0740,""
"GSWS07_119",2020-10-14 07:24:00,683,107.00,"",119,55521.0,0,"",14,"",0.0550,""
"GSWS07_119",2020-10-14 20:42:00,684,107.00,"",119,55521.0,0,"",15,"",0.0490,""
"GSWS07_119",2020-10-15 10:00:00,685,107.00,"",119,55521.0,0,"",16,"",0.0470,""
"GSWS07_119",2020-10-15 23:18:00,686,107.00,"",119,55521.0,0,"",17,"",0.0460,""
"GSWS07_119",2020-10-16 12:36:00,687,107.00,"",119,55521.0,0,"",18,"",0.0450,""
"GSWS07_119",2020-10-17 01:54:00,688,107.00,"",119,55521.0,0,"",19,"",0.0430,""
"GSWS07_119",2020-10-17 15:12:00,689,107.00,"",119,55521.0,0,"",20,"",0.0430,""
"GSWS07_119",2020-10-18 04:30:00,690,107.00,"",119,55521.0,0,"",21,"",0.0430,""
"GSWS07_119",2020-10-18 17:48:00,691,107.00,"",119,55521.0,0,"",22,"",0.0430,""
"GSWS07_119",2020-10-19 07:06:00,692,107.00,"",119,55521.0,0,"",23,"",0.0430,""
"GSWS07_119",2020-10-19 20:24:00,693,107.00,"",119,55521.0,0,"",24,"",0.0420,""
"GSWS07_119",2020-10-20 09:42:00,694,107.00,"",119,55521.0,0,"",25,"",0.0420,""
"GSWS07_119",2020-10-20 23:00:00,695,107.00,"",119,55521.0,0,"",26,"",0.0420,""
"GSWS07_119",2020-10-21 12:18:00,696,107.00,"",119,55521.0,0,"",27,"",0.0420,""
"GSWS07_119",2020-10-22 01:36:00,697,107.00,"",119,55521.0,0,"",28,"",0.0420,""
"GSWS07_119",2020-10-22 14:54:00,698,107.00,"",119,55521.0,0,"",29,"",0.0420,""
"GSWS07_119",2020-10-23 04:12:00,699,107.00,"",119,55521.0,0,"",30,"",0.0410,""
"GSWS07_119",2020-10-23 17:30:00,700,107.00,"",119,55521.0,0,"",31,"",0.0410,""
"GSWS07_119",2020-10-24 06:48:00,701,107.00,"",119,55521.0,0,"",32,"",0.0480,""
"GSWS07_119",2020-10-24 20:06:00,702,107.00,"",119,55521.0,0,"",33,"",0.0430,""
"GSWS07_119",2020-10-25 09:24:00,703,107.00,"",119,55521.0,0,"",34,"",0.0430,""
"GSWS07_119",2020-10-25 22:42:00,704,107.00,"",119,55521.0,0,"",35,"",0.0420,""
"GSWS07_119",2020-10-26 12:00:00,705,107.00,"",119,55521.0,0,"",36,"",0.0410,""
"GSWS07_119",2020-10-27 01:18:00,706,107.00,"",119,55521.0,0,"",37,"",0.0410,""
"GSWS07_119",2020-10-27 14:36:00,707,107.00,"",119,55521.0,0,"",38,"",0.0410,""
"GSWS07_119",2020-10-28 03:54:00,708,107.00,"",119,55521.0,0,"",39,"",0.0410,""
"GSWS07_119",2020-10-28 16:26:00,709,107.00,"",119,55521.0,0,"",40,"",0.0410,""
"GSWS07_119",2020-10-28 17:12:00,710,107.00,"",119,55521.0,0,"",1,"",0.0370,""
"GSWS07_119",2020-10-29 06:30:00,711,107.00,"",119,55521.0,0,"",2,"",0.0390,""
"GSWS07_119",2020-10-29 19:48:00,712,107.00,"",119,55521.0,0,"",3,"",0.0390,""
"GSWS07_119",2020-10-30 09:06:00,713,107.00,"",119,55521.0,0,"",4,"",0.0390,""
"GSWS07_119",2020-10-30 22:24:00,714,107.00,"",119,55521.0,0,"",5,"",0.0410,""
"GSWS07_119",2020-10-31 11:42:00,715,107.00,"",119,55521.0,0,"",6,"",0.0410,""
"GSWS07_119",2020-11-01 01:00:00,716,107.00,"",119,55521.0,0,"",7,"",0.0410,""
"GSWS07_119",2020-11-01 14:18:00,717,107.00,"",119,55521.0,0,"",8,"",0.0410,""
"GSWS07_119",2020-11-02 03:36:00,718,107.00,"",119,55521.0,0,"",9,"",0.0390,""
"GSWS07_119",2020-11-02 16:54:00,719,107.00,"",119,55521.0,0,"",10,"",0.0390,""
"GSWS07_119",2020-11-03 06:12:00,720,107.00,"",119,55521.0,0,"",11,"",0.0390,""
"GSWS07_119",2020-11-03 19:30:00,721,107.00,"",119,55521.0,0,"",12,"",0.0380,""
"GSWS07_119",2020-11-04 08:48:00,722,107.00,"",119,55521.0,0,"",13,"",0.0380,""
"GSWS07_119",2020-11-04 22:06:00,723,107.00,"",119,55521.0,0,"",14,"",0.0380,""
"GSWS07_119",2020-11-05 11:24:00,724,107.00,"",119,55521.0,0,"",15,"",0.0390,""
"GSWS07_119",2020-11-06 00:42:00,725,107.00,"",119,55521.0,0,"",16,"",0.0800,""
"GSWS07_119",2020-11-06 14:00:00,726,107.00,"",119,55521.0,0,"",17,"",0.0640,""
"GSWS07_119",2020-11-07 03:18:00,727,107.00,"",119,55521.0,0,"",18,"",0.0540,""
"GSWS07_119",2020-11-07 16:36:00,728,107.00,"",119,55521.0,0,"",19,"",0.0500,""
"GSWS07_119",2020-11-08 05:54:00,729,107.00,"",119,55521.0,0,"",20,"",0.0470,""
"GSWS07_119",2020-11-08 19:12:00,730,107.00,"",119,55521.0,0,"",21,"",0.0460,""
"GSWS07_119",2020-11-09 08:30:00,731,107.00,"",119,55521.0,0,"",22,"",0.0450,""
"GSWS07_119",2020-11-09 21:48:00,732,107.00,"",119,55521.0,0,"",23,"",0.0450,""
"GSWS07_119",2020-11-10 11:06:00,733,107.00,"",119,55521.0,0,"",24,"",0.0450,""
"GSWS07_119",2020-11-11 00:24:00,734,107.00,"",119,55521.0,0,"",25,"",0.0620,""
"GSWS07_119",2020-11-11 13:42:00,735,107.00,"",119,55521.0,0,"",26,"",0.0720,""
"GSWS07_119",2020-11-12 03:00:00,736,107.00,"",119,55521.0,0,"",27,"",0.0610,""
"GSWS07_119",2020-11-12 16:18:00,737,107.00,"",119,55521.0,0,"",28,"",0.0550,""
"GSWS07_119",2020-11-13 05:36:00,738,107.00,"",119,55521.0,0,"",29,"",0.1640,""
"GSWS07_119",2020-11-13 18:54:00,739,107.00,"",119,55521.0,0,"",30,"",0.1640,""
"GSWS07_119",2020-11-14 08:12:00,740,107.00,"",119,55521.0,0,"",31,"",0.1130,""
"GSWS07_119",2020-11-14 21:30:00,741,107.00,"",119,55521.0,0,"",32,"",0.3450,""
"GSWS07_119",2020-11-15 10:48:00,742,107.00,"",119,55521.0,0,"",33,"",0.2410,""
"GSWS07_119",2020-11-16 00:06:00,743,107.00,"",119,55521.0,0,"",34,"",0.1750,""
"GSWS07_119",2020-11-16 13:24:00,744,107.00,"",119,55521.0,0,"",35,"",0.1580,""
"GSWS07_119",2020-11-17 02:42:00,745,107.00,"",119,55521.0,0,"",36,"",0.1410,""
"GSWS07_119",2020-11-17 16:00:00,746,107.00,"",119,55521.0,0,"",37,"",0.1390,""
"GSWS07_119",2020-11-18 05:18:00,747,107.00,"",119,55521.0,0,"",38,"",0.1390,""
"GSWS07_119",2020-11-18 18:36:00,748,107.00,"",119,55521.0,0,"",1,"",0.1670,""
"GSWS07_119",2020-11-19 07:54:00,749,107.00,"",119,55521.0,0,"",2,"",0.1580,""
"GSWS07_119",2020-11-19 21:12:00,750,107.00,"",119,55521.0,0,"",3,"",0.1560,""
"GSWS07_119",2020-11-20 10:30:00,751,107.00,"",119,55521.0,0,"",4,"",0.1470,""
"GSWS07_119",2020-11-20 23:48:00,752,107.00,"",119,55521.0,0,"",5,"",0.1370,""
"GSWS07_119",2020-11-21 13:06:00,753,107.00,"",119,55521.0,0,"",6,"",0.1270,""
"GSWS07_119",2020-11-22 02:24:00,754,107.00,"",119,55521.0,0,"",7,"",0.1200,""
"GSWS07_119",2020-11-22 15:42:00,755,107.00,"",119,55521.0,0,"",8,"",0.1140,""
"GSWS07_119",2020-11-23 05:00:00,756,107.00,"",119,55521.0,0,"",9,"",0.1110,""
"GSWS07_119",2020-11-23 18:18:00,757,107.00,"",119,55521.0,0,"",10,"",0.1100,""
"GSWS07_119",2020-11-24 07:36:00,758,107.00,"",119,55521.0,0,"",11,"",0.1090,""
"GSWS07_119",2020-11-24 20:54:00,759,107.00,"",119,55521.0,0,"",12,"",0.1170,""
"GSWS07_119",2020-11-25 10:12:00,760,107.00,"",119,55521.0,0,"",13,"",0.1150,""
"GSWS07_119",2020-11-25 23:30:00,761,107.00,"",119,55521.0,0,"",14,"",0.1130,""
"GSWS07_119",2020-11-26 12:48:00,762,107.00,"",119,55521.0,0,"",15,"",0.1200,""
"GSWS07_119",2020-11-27 02:06:00,763,107.00,"",119,55521.0,0,"",16,"",0.1210,""
"GSWS07_119",2020-11-27 15:24:00,764,107.00,"",119,55521.0,0,"",17,"",0.1210,""
"GSWS07_119",2020-11-28 04:42:00,765,107.00,"",119,55521.0,0,"",18,"",0.1200,""
"GSWS07_119",2020-11-28 18:00:00,766,107.00,"",119,55521.0,0,"",19,"",0.1170,""
"GSWS07_119",2020-11-29 07:18:00,767,107.00,"",119,55521.0,0,"",20,"",0.1140,""
"GSWS07_119",2020-11-29 20:36:00,768,107.00,"",119,55521.0,0,"",21,"",0.1130,""
"GSWS07_119",2020-11-30 09:54:00,769,107.00,"",119,55521.0,0,"",22,"",0.1180,""
"GSWS07_119",2020-11-30 23:12:00,770,107.00,"",119,55521.0,0,"",23,"",0.1410,""
"GSWS07_119",2020-12-01 12:30:00,771,107.00,"",119,55521.0,0,"",24,"",0.1400,""
"GSWS07_119",2020-12-02 01:48:00,772,107.00,"",119,55521.0,0,"",25,"",0.1320,""
"GSWS07_119",2020-12-02 15:06:00,773,107.00,"",119,55521.0,0,"",26,"",0.1250,""
"GSWS07_119",2020-12-03 04:24:00,774,107.00,"",119,55521.0,0,"",27,"",0.1180,""
"GSWS07_119",2020-12-03 17:42:00,775,107.00,"",119,55521.0,0,"",28,"",0.1120,""
"GSWS07_119",2020-12-04 07:00:00,776,107.00,"",119,55521.0,0,"",29,"",0.1080,""
"GSWS07_119",2020-12-04 20:18:00,777,107.00,"",119,55521.0,0,"",30,"",0.1040,""
"GSWS07_119",2020-12-05 09:36:00,778,107.00,"",119,55521.0,0,"",31,"",0.1010,""
"GSWS07_119",2020-12-05 22:54:00,779,107.00,"",119,55521.0,0,"",32,"",0.0970,""
"GSWS07_119",2020-12-06 12:12:00,780,107.00,"",119,55521.0,0,"",33,"",0.1060,""
"GSWS07_119",2020-12-07 01:30:00,781,107.00,"",119,55521.0,0,"",34,"",0.1030,""
"GSWS07_119",2020-12-07 14:48:00,782,107.00,"",119,55521.0,0,"",35,"",0.1010,""
"GSWS07_119",2020-12-08 04:06:00,783,107.00,"",119,55521.0,0,"",36,"",0.0980,""
"GSWS07_119",2020-12-08 17:24:00,784,107.00,"",119,55521.0,0,"",37,"",0.0960,""
"GSWS07_119",2020-12-09 06:42:00,785,107.00,"",119,55521.0,0,"",38,"",0.0950,""
"GSWS07_119",2020-12-09 11:58:45,786,107.00,"",119,55521.0,0,"",39,"",0.0930,""
"GSWS07_119",2020-12-10 12:54:00,787,107.00,"",119,55521.0,0,"",1,"",0.0910,""
"GSWS07_119",2020-12-10 13:01:00,788,107.00,"",119,55521.0,0,"",1,"",0.0910,""
"GSWS07_119",2020-12-11 02:19:00,789,107.00,"",119,55521.0,0,"",2,"",0.0910,""
"GSWS07_119",2020-12-11 15:37:00,790,107.00,"",119,55521.0,0,"",3,"",0.0900,""
"GSWS07_119",2020-12-12 04:55:00,791,107.00,"",119,55521.0,0,"",4,"",0.0900,""
"GSWS07_119",2020-12-12 18:13:00,792,107.00,"",119,55521.0,0,"",5,"",0.0890,""
"GSWS07_119",2020-12-13 07:31:00,793,107.00,"",119,55521.0,0,"",6,"",0.1140,""
"GSWS07_119",2020-12-13 20:49:00,794,107.00,"",119,55521.0,0,"",7,"",0.1380,""
"GSWS07_119",2020-12-14 10:07:00,795,107.00,"",119,55521.0,0,"",8,"",0.1380,""
"GSWS07_119",2020-12-14 23:25:00,796,107.00,"",119,55521.0,0,"",9,"",0.1400,""
"GSWS07_119",2020-12-15 12:42:45,797,107.00,"",119,55521.0,0,"",10,"",0.1700,""
"GSWS07_119",2020-12-16 02:00:45,798,107.00,"",119,55521.0,0,"",11,"",0.1830,""
"GSWS07_119",2020-12-16 15:18:45,799,107.00,"",119,55521.0,0,"",12,"",0.2200,""
"GSWS07_119",2020-12-17 04:36:45,800,107.00,"",119,55521.0,0,"",13,"",0.3050,""
"GSWS07_119",2020-12-17 17:54:45,801,107.00,"",119,55521.0,0,"",14,"",0.2750,""
"GSWS07_119",2020-12-18 07:12:45,802,107.00,"",119,55521.0,0,"",15,"",0.2480,""
"GSWS07_119",2020-12-18 20:30:45,803,107.00,"",119,55521.0,0,"",16,"",0.2300,""
"GSWS07_119",2020-12-19 09:48:45,804,107.00,"",119,55521.0,0,"",17,"",0.2430,""
"GSWS07_119",2020-12-19 23:06:45,805,107.00,"",119,55521.0,0,"",18,"",0.3420,""
"GSWS07_119",2020-12-20 03:47:00,806,107.00,"",119,55521.0,0,"",19,"",0.5060,""
"GSWS07_119",2020-12-20 08:13:00,807,107.00,"",119,55521.0,0,"",20,"",0.5830,""
"GSWS07_119",2020-12-20 11:35:00,808,107.00,"",119,55521.0,0,"",21,"",0.6440,""
"GSWS07_119",2020-12-20 14:17:00,809,107.00,"",119,55521.0,0,"",22,"",0.7100,""
"GSWS07_119",2020-12-20 16:59:00,810,107.00,"",119,55521.0,0,"",23,"",0.7080,""
"GSWS07_119",2020-12-20 19:41:00,811,107.00,"",119,55521.0,0,"",24,"",0.7070,""
"GSWS07_119",2020-12-20 23:03:00,812,107.00,"",119,55521.0,0,"",25,"",0.6800,""
"GSWS07_119",2020-12-21 02:25:00,813,107.00,"",119,55521.0,0,"",26,"",0.6480,""
"GSWS07_119",2020-12-21 06:51:00,814,107.00,"",119,55521.0,0,"",27,"",0.6030,""
"GSWS07_119",2020-12-21 11:17:00,815,107.00,"",119,55521.0,0,"",28,"",0.5700,""
"GSWS07_119",2020-12-21 15:43:00,816,107.00,"",119,55521.0,0,"",29,"",0.5370,""
"GSWS07_119",2020-12-21 20:09:00,817,107.00,"",119,55521.0,0,"",30,"",0.5180,""
"GSWS07_119",2020-12-22 02:47:00,818,107.00,"",119,55521.0,0,"",31,"",0.4780,""
"GSWS07_119",2020-12-22 09:25:00,819,107.00,"",119,55521.0,0,"",32,"",0.4390,""
"GSWS07_119",2020-12-22 16:03:00,820,107.00,"",119,55521.0,0,"",33,"",0.4200,""
"GSWS07_119",2020-12-22 22:41:00,821,107.00,"",119,55521.0,0,"",34,"",0.3820,""
"GSWS07_119",2020-12-23 11:59:00,822,107.00,"",119,55521.0,0,"",35,"",0.3400,""
"GSWS07_119",2020-12-24 01:17:00,823,107.00,"",119,55521.0,0,"",36,"",0.3100,""
"GSWS07_119",2020-12-24 14:35:00,824,107.00,"",119,55521.0,0,"",37,"",0.2850,""
"GSWS07_119",2020-12-25 03:53:00,825,107.00,"",119,55521.0,0,"",38,"",0.2590,""
"GSWS07_119",2020-12-25 17:11:00,826,107.00,"",119,55521.0,0,"",39,"",0.2450,""
"GSWS07_119",2020-12-26 06:29:00,827,107.00,"",119,55521.0,0,"",40,"",0.2610,""
"GSWS07_119",2020-12-26 19:47:00,828,107.00,"",119,55521.0,0,"",41,"",0.2600,""
"GSWS07_119",2020-12-27 09:05:00,829,107.00,"",119,55521.0,0,"",42,"",0.2500,""
"GSWS07_119",2020-12-27 22:23:00,830,107.00,"",119,55521.0,0,"",43,"",0.2380,""
"GSWS07_119",2020-12-28 11:41:00,831,107.00,"",119,55521.0,0,"",44,"",0.2280,""
"GSWS07_119",2020-12-29 00:59:00,832,107.00,"",119,55521.0,0,"",45,"",0.2390,""
"GSWS07_119",2020-12-29 12:06:30,833,107.00,"",119,55521.0,0,"",46,"",0.2300,""
"GSWS07_119",2020-12-29 14:17:00,834,107.00,"",119,55521.0,0,"",1,"",0.2290,""
"GSWS07_119",2020-12-30 03:35:00,835,107.00,"",119,55521.0,0,"",2,"",0.2190,""
"GSWS07_119",2020-12-30 16:53:00,836,107.00,"",119,55521.0,0,"",3,"",0.2170,""
"GSWS07_119",2020-12-31 06:11:00,837,107.00,"",119,55521.0,0,"",4,"",0.2440,""
"GSWS07_119",2020-12-31 19:29:00,838,107.00,"",119,55521.0,0,"",5,"",0.2530,""
"GSWS07_119",2021-01-01 08:47:00,839,107.00,"",119,55521.0,0,"",6,"",0.2490,""
"GSWS07_119",2021-01-01 22:05:00,840,107.00,"",119,55521.0,0,"",7,"",0.2890,""
"GSWS07_119",2021-01-02 11:23:00,841,107.00,"",119,55521.0,0,"",8,"",0.3220,""
"GSWS07_119",2021-01-02 18:24:15,842,107.00,"",119,55521.0,0,"",9,"",0.3630,""
"GSWS07_119",2021-01-03 01:02:15,843,107.00,"",119,55521.0,0,"",10,"",0.4480,""
"GSWS07_119",2021-01-03 05:28:15,844,107.00,"",119,55521.0,0,"",11,"",0.5510,""
"GSWS07_119",2021-01-03 09:54:15,845,107.00,"",119,55521.0,0,"",12,"",0.5690,""
"GSWS07_119",2021-01-03 14:20:15,846,107.00,"",119,55521.0,0,"",13,"",0.5700,""
"GSWS07_119",2021-01-03 18:46:15,847,107.00,"",119,55521.0,0,"",14,"",0.5540,""
"GSWS07_119",2021-01-03 23:12:15,848,107.00,"",119,55521.0,0,"",15,"",0.5280,""
"GSWS07_119",2021-01-04 05:50:15,849,107.00,"",119,55521.0,0,"",16,"",0.4930,""
"GSWS07_119",2021-01-04 12:28:15,850,107.00,"",119,55521.0,0,"",17,"",0.4990,""
"GSWS07_119",2021-01-04 19:06:15,851,107.00,"",119,55521.0,0,"",18,"",0.4830,""
"GSWS07_119",2021-01-05 01:44:15,852,107.00,"",119,55521.0,0,"",19,"",0.4570,""
"GSWS07_119",2021-01-05 08:22:15,853,107.00,"",119,55521.0,0,"",20,"",0.4370,""
"GSWS07_119",2021-01-05 15:00:15,854,107.00,"",119,55521.0,0,"",21,"",0.4240,""
"GSWS07_119",2021-01-05 21:38:15,855,107.00,"",119,55521.0,0,"",22,"",0.4170,""
"GSWS07_119",2021-01-06 04:16:15,856,107.00,"",119,55521.0,0,"",23,"",0.4030,""
"GSWS07_119",2021-01-06 10:54:15,857,107.00,"",119,55521.0,0,"",24,"",0.3830,""
"GSWS07_119",2021-01-06 17:32:15,858,107.00,"",119,55521.0,0,"",25,"",0.3810,""
"GSWS07_119",2021-01-07 00:10:15,859,107.00,"",119,55521.0,0,"",26,"",0.3790,""
"GSWS07_119",2021-01-07 06:48:15,860,107.00,"",119,55521.0,0,"",27,"",0.3680,""
"GSWS07_119",2021-01-07 20:06:15,861,107.00,"",119,55521.0,0,"",28,"",0.3420,""
"GSWS07_119",2021-01-08 09:24:15,862,107.00,"",119,55521.0,0,"",29,"",0.3300,""
"GSWS07_119",2021-01-08 22:42:15,863,107.00,"",119,55521.0,0,"",30,"",0.3200,""
"GSWS07_119",2021-01-09 12:00:15,864,107.00,"",119,55521.0,0,"",31,"",0.3080,""
"GSWS07_119",2021-01-10 01:18:15,865,107.00,"",119,55521.0,0,"",32,"",0.2930,""
"GSWS07_119",2021-01-10 14:36:15,866,107.00,"",119,55521.0,0,"",33,"",0.2740,""
"GSWS07_119",2021-01-11 03:54:15,867,107.00,"",119,55521.0,0,"",34,"",0.2560,""
"GSWS07_119",2021-01-11 17:12:15,868,107.00,"",119,55521.0,0,"",35,"",0.2430,""
"GSWS07_119",2021-01-12 06:30:15,869,107.00,"",119,55521.0,0,"",36,"",0.3160,""
"GSWS07_119",2021-01-12 13:08:15,870,107.00,"",119,55521.0,0,"",37,"",0.4580,""
"GSWS07_119",2021-01-12 17:34:15,871,107.00,"",119,55521.0,0,"",38,"",0.5700,""
"GSWS07_119",2021-01-12 21:49:00,872,107.00,"",119,55521.0,0,"",39,"",0.6150,""
"GSWS07_119",2021-01-13 01:11:00,873,107.00,"",119,55521.0,0,"",40,"",0.7020,""
"GSWS07_119",2021-01-13 03:53:00,874,107.00,"",119,55521.0,0,"",41,"",0.7360,""
"GSWS07_119",2021-01-13 06:35:00,875,107.00,"",119,55521.0,0,"",42,"",0.7090,""
"GSWS07_119",2021-01-13 09:57:00,876,107.00,"",119,55521.0,0,"",43,"",0.6700,""
"GSWS07_119",2021-01-13 13:19:00,877,107.00,"",119,55521.0,0,"",44,"",0.6360,""
"GSWS07_119",2021-01-13 17:45:00,878,107.00,"",119,55521.0,0,"",45,"",0.5930,""
"GSWS07_119",2021-01-13 22:11:00,879,107.00,"",119,55521.0,0,"",46,"",0.5600,""
"GSWS07_119",2021-01-14 02:37:00,880,107.00,"",119,55521.0,0,"",47,"",0.5270,""
"GSWS07_119",2021-01-14 09:15:00,881,107.00,"",119,55521.0,0,"",48,"",0.4850,""
"GSWS07_119",2021-01-14 15:53:00,882,107.00,"",119,55521.0,0,"",49,"",0.4500,""
"GSWS07_119",2021-01-14 22:31:00,883,107.00,"",119,55521.0,0,"",50,"",0.4270,""
"GSWS07_119",2021-01-15 05:09:00,884,107.00,"",119,55521.0,0,"",51,"",0.3970,""
"GSWS07_119",2021-01-15 11:47:00,885,107.00,"",119,55521.0,0,"",52,"",0.3650,""
"GSWS07_119",2021-01-16 01:05:00,886,107.00,"",119,55521.0,0,"",53,"",0.3300,""
"GSWS07_119",2021-01-16 14:23:00,887,107.00,"",119,55521.0,0,"",54,"",0.3000,""
"GSWS07_119",2021-01-17 03:41:00,888,107.00,"",119,55521.0,0,"",55,"",0.2670,""
"GSWS07_119",2021-01-17 16:59:00,889,107.00,"",119,55521.0,0,"",56,"",0.2440,""
"GSWS07_119",2021-01-18 06:17:00,890,107.00,"",119,55521.0,0,"",57,"",0.2500,""
"GSWS07_119",2021-01-18 19:35:00,891,107.00,"",119,55521.0,0,"",58,"",0.2380,""
"GSWS07_119",2021-01-19 08:53:00,892,107.00,"",119,55521.0,0,"",59,"",0.2270,""
"GSWS07_119",2021-01-19 22:11:00,893,107.00,"",119,55521.0,0,"",60,"",0.2160,""
"GSWS07_119",2021-01-20 11:29:00,894,107.00,"",119,55521.0,0,"",61,"",0.2080,""
"GSWS07_119",2021-01-21 00:47:00,895,107.00,"",119,55521.0,0,"",62,"",0.2010,""
"GSWS07_119",2021-01-21 12:50:00,896,107.00,"",119,55521.0,0,"",63,"",0.1960,""
"GSWS07_119",2021-01-21 14:05:00,897,107.00,"",119,55521.0,0,"",1,"",0.1920,""
"GSWS07_119",2021-01-22 03:23:00,898,107.00,"",119,55521.0,0,"",2,"",0.1890,""
"GSWS07_119",2021-01-22 16:41:00,899,107.00,"",119,55521.0,0,"",3,"",0.1820,""
"GSWS07_119",2021-01-23 05:59:00,900,107.00,"",119,55521.0,0,"",4,"",0.1770,""
"GSWS07_119",2021-01-23 19:17:00,901,107.00,"",119,55521.0,0,"",5,"",0.1750,""
"GSWS07_119",2021-01-24 08:35:00,902,107.00,"",119,55521.0,0,"",6,"",0.1720,""
"GSWS07_119",2021-01-24 21:53:00,903,107.00,"",119,55521.0,0,"",7,"",0.1690,""
"GSWS07_119",2021-01-25 11:11:00,904,107.00,"",119,55521.0,0,"",8,"",0.1640,""
"GSWS07_119",2021-01-26 00:29:00,905,107.00,"",119,55521.0,0,"",9,"",0.1600,""
"GSWS07_119",2021-01-26 13:47:00,906,107.00,"",119,55521.0,0,"",10,"",0.1590,""
"GSWS07_119",2021-01-27 03:05:00,907,107.00,"",119,55521.0,0,"",11,"",0.1580,""
"GSWS07_119",2021-01-27 16:23:00,908,107.00,"",119,55521.0,0,"",12,"",0.1550,""
"GSWS07_119",2021-01-28 05:41:00,909,107.00,"",119,55521.0,0,"",13,"",0.1520,""
"GSWS07_119",2021-01-28 18:59:00,910,107.00,"",119,55521.0,0,"",14,"",0.1510,""
"GSWS07_119",2021-01-29 08:17:00,911,107.00,"",119,55521.0,0,"",15,"",0.1460,""
"GSWS07_119",2021-01-29 21:35:00,912,107.00,"",119,55521.0,0,"",16,"",0.1440,""
"GSWS07_119",2021-01-30 10:53:00,913,107.00,"",119,55521.0,0,"",17,"",0.1420,""
"GSWS07_119",2021-01-31 00:11:00,914,107.00,"",119,55521.0,0,"",18,"",0.1420,""
"GSWS07_119",2021-01-31 13:29:00,915,107.00,"",119,55521.0,0,"",19,"",0.1640,""
"GSWS07_119",2021-02-01 02:47:00,916,107.00,"",119,55521.0,0,"",20,"",0.1590,""
"GSWS07_119",2021-02-01 16:05:00,917,107.00,"",119,55521.0,0,"",21,"",0.1590,""
"GSWS07_119",2021-02-02 05:23:00,918,107.00,"",119,55521.0,0,"",22,"",0.1720,""
"GSWS07_119",2021-02-02 18:41:00,919,107.00,"",119,55521.0,0,"",23,"",0.1820,""
"GSWS07_119",2021-02-03 07:59:00,920,107.00,"",119,55521.0,0,"",24,"",0.1870,""
"GSWS07_119",2021-02-03 21:17:00,921,107.00,"",119,55521.0,0,"",25,"",0.1750,""
"GSWS07_119",2021-02-04 10:35:00,922,107.00,"",119,55521.0,0,"",26,"",0.1690,""
"GSWS07_119",2021-02-04 23:53:00,923,107.00,"",119,55521.0,0,"",27,"",0.1630,""
"GSWS07_119",2021-02-05 13:11:00,924,107.00,"",119,55521.0,0,"",28,"",0.1670,""
"GSWS07_119",2021-02-06 02:29:00,925,107.00,"",119,55521.0,0,"",29,"",0.1710,""
"GSWS07_119",2021-02-06 15:47:00,926,107.00,"",119,55521.0,0,"",30,"",0.1730,""
"GSWS07_119",2021-02-07 05:05:00,927,107.00,"",119,55521.0,0,"",31,"",0.1750,""
"GSWS07_119",2021-02-07 18:23:00,928,107.00,"",119,55521.0,0,"",32,"",0.1770,""
"GSWS07_119",2021-02-08 07:41:00,929,107.00,"",119,55521.0,0,"",33,"",0.1790,""
"GSWS07_119",2021-02-08 20:59:00,930,107.00,"",119,55521.0,0,"",34,"",0.1790,""
"GSWS07_119",2021-02-09 10:17:00,931,107.00,"",119,55521.0,0,"",35,"",0.1790,""
"GSWS07_119",2021-02-09 23:35:00,932,107.00,"",119,55521.0,0,"",1,"",0.1780,""
"GSWS07_119",2021-02-10 12:53:00,933,107.00,"",119,55521.0,0,"",2,"",0.1760,""
"GSWS07_119",2021-02-11 02:11:00,934,107.00,"",119,55521.0,0,"",3,"",0.1740,""
"GSWS07_119",2021-02-11 15:29:00,935,107.00,"",119,55521.0,0,"",4,"",0.1780,""
"GSWS07_119",2021-02-12 04:47:00,936,107.00,"",119,55521.0,0,"",5,"",0.1960,""
"GSWS07_119",2021-02-12 18:05:00,937,107.00,"",119,55521.0,0,"",6,"",0.2640,""
"GSWS07_119",2021-02-13 01:34:15,938,107.00,"",119,55521.0,0,"",7,"",0.3630,""
"GSWS07_119",2021-02-13 08:12:15,939,107.00,"",119,55521.0,0,"",8,"",0.3660,""
"GSWS07_119",2021-02-13 21:30:15,940,107.00,"",119,55521.0,0,"",9,"",0.3550,""
"GSWS07_119",2021-02-14 10:48:15,941,107.00,"",119,55521.0,0,"",10,"",0.3370,""
"GSWS07_119",2021-02-14 22:09:30,942,107.00,"",119,55521.0,0,"",11,"",0.3630,""
"GSWS07_119",2021-02-15 04:47:30,943,107.00,"",119,55521.0,0,"",12,"",0.4320,""
"GSWS07_119",2021-02-15 11:25:30,944,107.00,"",119,55521.0,0,"",13,"",0.4650,""
"GSWS07_119",2021-02-15 16:26:45,945,107.00,"",119,55521.0,0,"",14,"",0.5060,""
"GSWS07_119",2021-02-15 20:52:45,946,107.00,"",119,55521.0,0,"",15,"",0.5340,""